Location: Loup Canal
(41.4930°N, 97.5670°W)
Time: 11:31:31
(UTC-06:00)

Daily predictions for brighter satellites

Satellite Brightness Start Highest point End
(mag) Time Altitude Azimuth Time Altitude Azimuth Time Altitude Azimuth
Resurs 01 Rocket 3.0 18:37:33 10° ESE 18:40:31 18° ENE 18:43:31 10° NNE
Cosmos 1340 4.1 18:37:48 10° NNE 18:40:33 19° ENE 18:43:18 10° ESE
Cosmos 407 Rocket 3.8 18:35:52 10° S 18:40:50 46° ESE 18:45:54 10° NNE
Meteor 1-14 Rocket 4.4 18:35:41 10° S 18:41:39 88° E 18:47:41 10° N
Cosmos 1238 Rocket 4.1 18:40:50 10° NE 18:42:03 12° ENE 18:43:16 10° E
DELTA 2 R/B (1) 3.8 18:36:57 10° W 18:42:33 74° S 18:48:09 10° E
Cosmos 1782 Rocket 4.0 18:38:44 10° SSW 18:43:08 71° W 18:47:37 10° N
Meteor 1-20 Rocket 4.4 18:38:52 10° S 18:44:32 57° E 18:50:16 10° NNE
Cosmos 2322 Rocket 2.2 18:43:22 10° NNW 18:49:00 72° ENE 18:54:36 10° SSE
Meteor 1-28 Rocket 3.2 18:46:14 10° NNE 18:50:03 86° ESE 18:53:52 10° SSW
Tiangong 2 1.1 18:48:23 10° WNW 18:51:28 77° SSW 18:54:33 10° ESE
Cosmos 44 Rocket 4.3 18:48:26 10° NW 18:53:01 49° WSW 18:57:30 10° S
COSMO-SKYMED 1 3.1 18:52:08 10° N 18:56:27 65° WNW 19:00:44 10° SSW
Cosmos 1536 4.4 18:56:31 10° ESE 18:58:48 15° E 19:01:05 10° NE
Cosmos 2322 4.4 18:56:24 10° N 19:01:33 33° ENE 19:06:39 10° ESE
Okean 2 Rocket 3.7 18:57:28 10° SSW 19:01:52 60° W 19:06:17 10° N
Okean 1 3.3 19:00:09 10° N 19:04:11 62° E 19:08:12 10° SSE
Cosmos 1140 Rocket 4.1 19:01:34 10° SSE 19:06:03 32° E 19:10:35 10° NE
FENGYUN 3A 4.0 19:01:12 10° SE 19:06:19 45° ENE 19:11:28 10° N
Cosmos 1190 Rocket 4.0 19:01:15 10° SSW 19:06:26 88° WNW 19:11:41 10° NNE
Cosmos 1461 2.7 19:03:08 10° NNW 19:07:09 80° NE 19:11:15 10° SE
Cosmos 1709 Rocket 4.1 19:01:28 10° SSE 19:07:30 56° E 19:13:31 10° NNE
deb Kosmos-1763 4.3 19:03:49 10° SSW 19:07:36 75° WNW 19:11:25 10° NNE
Cosmos 44 4.1 19:08:35 10° NW 19:12:49 47° WSW 19:16:56 10° S
H-2A R/B 3.5 19:10:55 10° SE 19:14:07 28° ENE 19:17:22 10° N
COSMOS 2428 3.8 19:09:52 10° N 19:14:23 24° NE 19:16:58 17° E
Cosmos 2292 Rocket 4.2 19:10:41 10° S 19:15:32 73° E 19:22:10 10° N
Meteor 2-4 Rocket 4.3 19:10:55 10° N 19:15:53 32° ENE 19:20:42 10° SE
Spot 2 Rocket 3.8 19:11:41 10° SE 19:16:25 42° ENE 19:21:11 10° N
Cosmos 2151 Rocket 3.7 19:16:01 10° S 19:20:31 82° W 19:25:04 10° N
Cosmos 1812 3.8 19:17:18 10° NNW 19:21:02 48° W 19:24:45 10° SSW
CENTAUR R/B 4.5 19:13:57 10° NW 19:21:18 41° WSW 19:28:58 10° S
Helios 1A 4.0 19:21:30 21° E 19:22:42 25° ENE 19:26:07 10° NNE
Cosmos 2237 Rocket 4.2 19:21:55 10° NNE 19:23:19 11° NE 19:23:53 11° NE
Okean 1 Rocket 3.4 19:22:55 10° SSE 19:27:08 42° E 19:31:22 10° NNE
HJ-1C 3.2 19:27:12 10° SSE 19:30:33 75° ENE 19:33:55 10° N
Meteor 1-11 Rocket 3.8 19:26:02 10° S 19:31:41 59° E 19:37:28 10° NNE
Envisat 4.3 19:33:04 20° ENE 19:33:04 20° ENE 19:36:33 10° NNE
Cosmos 1954 Rocket 3.9 19:29:00 10° SSW 19:34:10 78° ESE 19:39:25 10° NNE
GEOS 3 Rocket 3.6 19:29:14 10° NE 19:34:30 83° SE 19:39:47 10° SW
Cosmos 2219 3.8 19:33:22 10° SSE 19:38:25 33° ESE 19:41:01 23° ENE
Cosmos 2360 Rocket 2.1 19:35:31 10° NNW 19:41:11 75° ENE 19:46:50 10° SSE
Helios 1B rocket 3.3 19:44:11 30° SE 19:44:11 30° SE 19:46:54 10° SSE
Cosmos 2219 Rocket 3.4 19:39:37 10° N 19:43:58 23° NE 19:44:09 22° NE
Okean 1-7 Rocket 3.7 19:41:13 10° N 19:45:40 51° E 19:48:12 23° SE
Cosmos 1633 2.8 19:42:55 10° SSW 19:46:36 70° W 19:50:17 10° N
Cosmos 1602 3.8 19:43:13 10° SSW 19:47:04 77° W 19:50:59 10° N
Cosmos 1025 Rocket 3.2 19:51:21 10° N 19:55:30 48° ENE 19:55:30 48° ENE
ALOS 2.9 19:53:33 10° S 19:58:07 56° W 20:02:44 10° NNW
Spot 1 3.8 19:59:37 55° SE 20:00:18 68° ENE 20:04:23 10° N
ATLAS 2A CENTAUR R/B 4.3 20:04:12 10° SSW 20:06:35 14° SSE 20:07:24 13° SSE
Cosmos 2333 Rocket 3.3 20:04:53 10° N 20:09:03 28° NE 20:09:03 28° NE
BREEZE-M DEB (TANK) 2.5 20:08:42 10° WNW 20:11:27 89° SW 20:12:05 64° ESE
Cosmos 1741 Rocket 3.8 20:09:23 10° SSW 20:14:36 83° ESE 20:18:34 18° NNE
Resurs 01 Rocket 2.7 20:12:27 10° S 20:16:40 44° W 20:20:53 10° NNW
SL-08 ROCKET BODY 4.4 20:12:25 10° S 20:18:35 85° W 20:24:50 10° N
Cosmos 1610 Rocket 4.3 20:19:40 10° S 20:25:51 67° E 20:31:59 10° NNE
Tiangong 2 3.8 20:25:23 10° W 20:26:33 16° WSW 20:26:33 16° WSW
Gbstr 26 Del rocket 3.8 20:24:05 10° WSW 20:26:34 39° WSW 20:26:34 39° WSW
Cosmos 1570 Rocket 4.1 20:22:43 10° NNW 20:27:56 75° WSW 20:29:15 51° S
Intercosmos 24 4.4 20:24:05 10° SSW 20:28:06 74° W 20:33:47 10° N
DELTA 2 R/B (1) 4.1 20:23:24 10° W 20:28:45 46° SSW 20:29:26 44° S
Meteor 1-5 Rocket 4.3 20:25:37 10° S 20:31:36 85° W 20:37:34 10° N
Cosmos 1536 4.2 20:31:11 10° SSW 20:34:54 37° WNW 20:38:38 10° N
COSMOS 2428 3.2 20:53:28 10° NNW 20:59:01 56° WSW 20:59:03 56° WSW
Cosmos 2237 Rocket 3.7 21:02:59 10° NNW 21:05:43 28° N 21:05:43 28° N
Envisat 4.4 21:13:16 35° NW 21:13:16 35° NW 21:16:27 10° NNW
USA 229 DEB 4.0 21:13:11 10° NW 21:19:44 66° W 21:19:44 66° W
USA 229 4.0 21:13:16 10° NW 21:19:49 66° W 21:19:49 66° W
Cosmos 2219 Rocket 3.7 21:22:49 10° NNW 21:25:54 32° NW 21:25:54 32° NW
ATLAS 2AS CENTAUR R/B 4.5 21:31:55 10° NNW 21:36:51 25° NNE 21:36:51 25° NNE
Cosmos 2333 Rocket 4.3 21:48:51 10° NW 21:51:05 23° NW 21:51:05 23° NW
